View from above orbital plane
|
View from above satellite
|
Ground track
|
The orbit data is extracted from the following two-line orbital elements,
1 03598U 68110B 21018.69974351 .00000041 00000-0 14411-4 0 9997
2 03598 34.9930 130.1056 0048722 67.4501 293.1339 14.54504777736614
Epoch (UTC): | 18 January 2021 16:47:37 |
Eccentricity: | 0.0048722 |
inclination: | 34.9930° |
perigee height: | 676 km |
apogee height: | 745 km |
right ascension of ascending node: | 130.1056° |
argument of perigee: | 67.4501° |
revolutions per day: | 14.54504777 |
mean anomaly at epoch: | 293.1339° |
orbit number at epoch: | 73661 |
The dashed part of the orbit path shows where the satellite is in the earth's shadow,
|
|